Date,TemperatureHighF,TemperatureAvgF,TemperatureLowF,DewpointHighF,DewpointAvgF,DewpointLowF,HumidityHigh,HumidityAvg,HumidityLow,PressureMaxIn,PressureMinIn,WindSpeedMaxMPH,WindSpeedAvgMPH,GustSpeedMaxMPH,PrecipitationSumIn
2014-2-1,26,18,10,20,13,3,81,74,65,30.03,29.82,0,0,0,0.00
2014-2-2,27,15,5,15,7,-2,73,64,52,30.03,29.91,2,0,5,0.24
2014-2-3,32,22,13,17,11,6,72,59,46,29.92,29.84,6,0,7,0.02
2014-2-4,21,11,-5,12,4,-11,73,67,59,30.07,29.87,11,1,11,0.02
2014-2-5,1,-6,-13,-8,-14,-21,65,61,57,30.10,30.01,8,0,10,0.00
2014-2-6,26,6,-14,13,-2,-22,70,60,51,30.01,29.86,5,0,6,0.02
2014-2-7,37,26,15,20,14,7,66,55,44,29.95,29.84,5,0,5,0.04
2014-2-8,42,32,21,24,17,10,58,51,41,30.04,29.90,13,0,13,0.02
2014-2-9,47,35,26,26,23,18,70,57,39,30.06,29.94,8,0,12,0.00
2014-2-10,36,29,24,30,22,-100,78,72,67,30.14,30.01,5,0,6,0.00
2014-2-11,39,29,20,24,17,10,77,58,40,30.14,29.98,8,0,8,0.00
2014-2-12,36,27,18,24,18,10,73,61,48,30.15,29.95,6,0,8,0.00
2014-2-13,48,38,30,28,24,20,65,52,37,30.07,29.96,9,0,11,0.00
2014-2-14,37,32,10,28,23,2,74,63,41,30.13,29.99,9,0,57,0.00
2014-2-15,50,41,30,31,27,24,76,55,33,30.18,29.95,13,2,23,0.00
2014-2-16,50,40,30,29,24,21,78,51,32,30.13,29.91,14,1,14,0.00
2014-2-17,49,39,27,20,5,-100,49,26,19,30.19,29.96,12,1,13,0.00
2014-2-18,51,42,32,20,-11,-100,52,27,15,30.12,29.92,12,1,12,0.00
2014-2-19,49,35,20,22,19,16,80,49,28,30.08,29.68,22,1,22,0.00
2014-2-20,24,20,14,16,7,2,79,55,38,30.01,29.77,15,2,18,0.00
2014-2-21,39,30,21,11,8,2,46,36,26,29.99,29.93,10,1,11,0.04
2014-2-22,41,32,22,16,10,7,70,38,26,30.02,29.90,7,0,57,0.02
2014-2-23,42,30,21,25,19,15,74,61,43,30.08,30.01,7,0,7,0.00
2014-2-24,51,34,19,22,16,13,71,46,27,30.17,30.03,12,1,12,0.00
2014-2-25,47,21,7,26,13,2,77,67,38,30.21,30.02,17,3,22,0.00
2014-2-26,42,26,11,24,14,4,78,56,39,30.15,30.01,6,0,10,0.00
2014-2-27,49,38,26,28,22,14,58,48,35,30.01,29.75,6,0,7,0.00
2014-2-28,49,39,27,26,20,13,67,45,24,29.95,29.76,10,1,11,0.00